sat.trackr.live / text

‹ back to catalog

STARLINK-31383

NORAD 58936 · 2024-027F

PAYLOAD ACTIVE UNKNOWN

§ Identity

Operator
Country
US
Launch date
2024-02-10
Launch site
AFWTR
Launch vehicle
Mass (kg)
RCS (m²)

Purposes: comms

External: N2YO · Heavens-Above · Gunter

§ Orbital elements

Epoch: 2026-05-25T04:03:49.000896Z

Period
94.11 min
Inclination
53.1618°
Eccentricity
0.0001140
Mean motion
15.30193889 rev/d
Perigee alt
474.5 km
Apogee alt
476.0 km
Semi-major
6,853.4 km
B*
2.6617e-5
RAAN
314.6714°
Arg perigee
95.3815°
Mean anomaly
264.7316°
Rev number
12,903

§ Raw data

STARLINK-313831 58936U 24027F   26145.16931714  .00000429  00000+0  26617-4 0  99962 58936  53.1618 314.6714 0001140  95.3815 264.7316 15.30193889129031

JSON: /api/v1/satellites/58936 · /tle

For live sub-satellite position, see the globe view (requires WebGL).

§ Visibility from observer

Set your observer location to see the next 7 days of passes ≥ 10°. The values pass through the URL so the page stays shareable.

No JS? Fill the form by hand. The geolocation button needs JavaScript.